Location: Vaughan
(31.9146°N, 97.1736°W)
Time: 16:48:08
(UTC+00:00)

Cosmos 2263 Rocket - Pass Details

Date: 10 December 2025
Orbit: 821 x 849 km, 71.0° (Epoch: 16 January)

Event Time Altitude Azimuth Distance (km) Brightness Sun altitude
Rises 00:02:14 0° 2° (N) 3,404 5.1 -8.1°
Reaches altitude 10° 00:06:12 10° 29° (NNE) 2,470 4.2 -8.9°
Maximum altitude 00:08:46 13° 56° (NE) 2,253 3.8 -9.4°
Enters shadow 00:10:19 12° 73° (ENE) 2,334 3.8 -9.7°
